Location: Borz?cin
(51.1714°N, 19.6030°E)
Time: 08:20:06
(UTC+00:00)

Cosmos 2360 Rocket - Pass Details

Date: 19 May 2025
Orbit: 834 x 842 km, 71.0° (Epoch: 16 June)

Event Time Altitude Azimuth Distance (km) Brightness Sun altitude
Rises 23:09:51 0° 326° (NW) 3,394 6.1 -18.5°
Reaches altitude 10° 23:12:25 10° 319° (NW) 2,456 5.2 -18.4°
Maximum altitude 23:17:38 41° 251° (WSW) 1,201 2.8 -18.3°
Enters shadow 23:19:34 31° 208° (SSW) 1,438 2.9 -18.3°
